BNN weather

Brønnøysund Airport
Brønnøy, Nordland, Norway

Public forecast

Using degrees Celsius for public forecast. Weather courtesy of forecast.io.

Current aviation weather report (METAR) for Brønnøysund Airport

Retrieved 2020/07/10 12:20 UTC (15 minutes ago):

ENBN 101220Z 20010KT 9999 FEW015 BKN050 14/09 Q1008

Closest aviation forecast (TAF) to Brønnøysund Airport

Forecast is more than 12 hours old.

Closest forecast is Hemavan Airport, 73.9 nm (136.9 km) ENE. Retrieved 2009/10/12 22:40 UTC (11 years ago):

TAF TAF LTCC 122240Z 13 SASN33 ESWI 130020 RRA METAR ESUT 130020Z AUTO 00000KT 9999NDV NCD M08/M10 Q1022